KG6QPT Weather Reports


Display with metric or nautical units.
time (UTC)temp
F
wind
direction
speed
MPH
gust
MPH
rain 1hr
in
rain 24hr
in
rain mn
in
humidity
%
barometer
mb
20191214110106 37 162 0.0 0.0 0.07 0.03 0.69
20191214105107 37 162 0.0 0.0 0.07 0.03 0.69
20191214102114 37 162 0.0 0.0 0.02 0.03 0.69
20191214101116 37 162 0.0 0.0 0.02 0.03 0.69
20191214094121 38 162 0.0 0.0 0.03 0.03 0.61
20191214093123 38 162 0.0 0.0 0.03 0.03 0.61
20191214090130 37 162 0.0 0.0 0.03 0.03 0.60
20191214085132 37 162 0.0 0.0 0.03 0.03 0.60
20191214081141 38 162 0.0 0.0 0.06 0.03 0.59
20191214075143 37 65 0.0 0.0 0.06 0.03 0.57
20191214074146 38 65 0.0 0.0 0.06 0.03 0.57
20191214072150 37 65 0.0 0.0 0.06 0.03 0.55
20191214071152 38 65 0.0 0.0 0.06 0.03 0.54
20191214070154 37 65 0.0 0.0 0.06 0.03 0.52
20191214063159 37 65 0.0 0.0 0.11 0.03 0.49
20191214061202 38 65 0.0 0.0 0.11 0.03 0.48
20191214060204 37 65 0.0 0.0 0.11 0.03 0.46
20191214055206 37 65 0.0 0.0 0.11 0.03 0.45
20191214054208 37 65 0.0 0.0 0.07 0.03 0.44
20191214053211 37 65 0.0 0.0 0.07 0.03 0.42
20191214052213 37 65 0.0 0.0 0.07 0.03 0.41
20191214050217 37 65 0.0 0.0 0.07 0.03 0.37
20191214045219 37 65 0.0 0.0 0.07 0.03 0.34
20191214044221 37 65 0.0 0.0 0.01 0.03 0.32
20191214043222 36 65 0.0 0.0 0.01 0.03 0.30
20191214042224 37 65 0.0 0.0 0.01 0.03 0.30
20191214041226 37 65 0.0 0.0 0.01 0.03 0.28
20191214040229 37 65 0.0 0.0 0.01 0.03 0.28
20191214035231 37 65 0.0 0.0 0.01 0.03 0.27
20191214032237 37 65 0.0 0.0 0.03 0.03 0.26
20191214031239 37 65 0.0 0.0 0.03 0.03 0.26
20191214030242 37 65 0.0 0.0 0.03 0.03 0.26
20191214025244 37 65 0.0 0.0 0.03 0.03 0.26
20191214024247 37 65 0.0 0.0 0.04 0.03 0.25
20191214022250 37 65 0.0 0.0 0.04 0.03 0.25
20191214020252 37 65 0.0 0.0 0.04 0.03 0.24
20191214015254 36 65 0.0 0.0 0.04 0.03 0.23
20191214012259 37 65 0.0 0.0 0.04 0.03 0.21
20191214004308 38 65 0.0 0.0 0.02 0.03 0.18
20191213235318 37 65 0.0 0.0 0.02 0.03 0.15
20191213234320 38 65 0.0 0.0 0.01 0.03 0.14
20191213225327 37 135 0.0 0.0 0.01 0.03 0.13
20191213224329 38 135 0.0 0.0 0.05 0.03 0.13
20191213221335 37 104 0.0 0.0 0.05 0.03 0.13
20191213220337 38 104 0.0 0.0 0.05 0.03 0.12
20191213214342 37 104 0.0 0.0 0.07 0.03 0.12
20191213213344 37 104 0.0 0.0 0.07 0.03 0.11
20191213212347 37 104 0.0 0.0 0.07 0.03 0.10
20191213211349 37 104 0.0 0.0 0.07 0.03 0.09
20191213205353 38 104 0.0 0.0 0.07 0.03 0.07
20191213203354 38 120 0.0 0.0 0.00 0.03 0.06
20191213202356 37 115 0.0 0.0 0.00 0.03 0.05
20191213201355 38 115 0.0 0.0 0.00 0.03 0.04
20191213200357 38 115 0.0 0.0 0.00 0.03 0.01
20191213194402 38 115 0.0 0.0 0.00 0.03 0.00
20191213190411 37 25 0.0 0.0 0.00 0.03 0.00
20191213185413 37 25 0.0 0.0 0.00 0.03 0.00
20191213184416 37 25 0.0 0.0 0.00 0.03 0.00
20191213174427 37 25 0.0 0.0 0.00 0.03 0.00
20191213172428 36 25 0.0 0.0 0.00 0.03 0.00
20191213164432 36 25 0.0 0.0 0.00 0.03 0.00
20191213163434 35 25 0.0 0.0 0.00 0.03 0.00
20191213162436 35 25 0.0 0.0 0.00 0.03 0.00
20191213161439 35 25 0.0 0.0 0.00 0.03 0.00
20191213160441 35 25 0.0 0.0 0.00 0.03 0.00
20191213155444 35 25 0.0 0.0 0.00 0.03 0.00
20191213154444 35 25 0.0 0.0 0.00 0.03 0.00
20191213151452 35 25 0.0 0.0 0.00 0.03 0.00
20191213150454 35 25 0.0 0.0 0.00 0.03 0.00
20191213145456 35 25 0.0 0.0 0.00 0.03 0.00
20191213144459 35 25 0.0 0.0 0.00 0.07 0.03
20191213143457 35 25 0.0 0.0 0.00 0.07 0.03
20191213142500 34 25 0.0 0.0 0.00 0.07 0.03
20191213141502 34 25 0.0 0.0 0.00 0.07 0.03
20191213140504 34 25 0.0 0.0 0.00 0.07 0.03
20191213135507 34 25 0.0 0.0 0.00 0.07 0.03
20191213133511 34 25 0.0 0.0 0.00 0.07 0.03
20191213132512 34 25 0.0 0.0 0.00 0.07 0.03
20191213131512 34 25 0.0 0.0 0.00 0.07 0.03
20191213130515 34 25 0.0 0.0 0.00 0.07 0.03
20191213123510 34 25 0.0 0.0 0.00 0.07 0.03
20191213122512 33 25 0.0 0.0 0.00 0.07 0.03
20191213114522 34 25 0.0 0.0 0.00 0.07 0.03
20191213113522 34 25 0.0 0.0 0.00 0.07 0.03
20191213112521 34 25 0.0 0.0 0.00 0.07 0.03
20191213111523 33 25 0.0 0.0 0.00 0.07 0.03
20191213105525 34 25 0.0 0.0 0.00 0.07 0.03
20191213104528 34 25 0.0 0.0 0.00 0.07 0.03
20191213103530 34 25 0.0 0.0 0.00 0.07 0.03
20191213101535 34 25 0.0 0.0 0.00 0.07 0.03
20191213100537 35 25 0.0 0.0 0.00 0.07 0.03
20191213095540 35 25 0.0 0.0 0.00 0.07 0.03
20191213093545 35 25 0.0 0.0 0.00 0.07 0.03
20191213092547 35 25 0.0 0.0 0.00 0.07 0.03
20191213090551 34 25 0.0 0.0 0.00 0.07 0.03
20191213085548 34 25 0.0 0.0 0.00 0.07 0.03
20191213084550 34 25 0.0 0.0 0.00 0.07 0.03
20191213083553 34 25 0.0 0.0 0.00 0.07 0.03
20191213082555 34 25 0.0 0.0 0.00 0.07 0.03
20191213081558 34 25 0.0 0.0 0.00 0.07 0.03
20191213080600 34 25 0.0 0.0 0.00 0.07 0.03
20191213075603 35 25 0.0 0.0 0.00 0.07 0.03
20191213072606 35 25 0.0 0.0 0.00 0.07 0.03
20191213065611 35 25 0.0 0.0 0.00 0.07 0.03
20191213063615 34 25 0.0 0.0 0.00 0.07 0.03
20191213062617 35 25 0.0 0.0 0.00 0.07 0.03
20191213061620 35 25 0.0 0.0 0.00 0.07 0.03
20191213060622 35 25 0.0 0.0 0.00 0.07 0.03
20191213055624 35 25 0.0 0.0 0.00 0.07 0.03
20191213053630 35 25 0.0 0.0 0.00 0.07 0.03
20191213052632 35 25 0.0 0.0 0.00 0.07 0.03
20191213051635 35 25 0.0 0.0 0.00 0.07 0.03
20191213044642 36 25 0.0 0.0 0.00 0.07 0.03
20191213043644 37 25 0.0 0.0 0.00 0.07 0.03
20191213042647 37 25 0.0 0.0 0.00 0.07 0.03
20191213040652 37 25 0.0 0.0 0.00 0.07 0.03
20191213033659 37 25 0.0 0.0 0.00 0.07 0.03
20191213032701 38 25 0.0 0.0 0.00 0.07 0.03
20191213031703 38 25 0.0 0.0 0.00 0.07 0.03
20191213030705 39 25 0.0 0.0 0.00 0.07 0.03
20191213025707 39 25 0.0 0.0 0.00 0.07 0.03
20191213023712 39 25 0.0 0.0 0.03 0.07 0.03
20191213021716 40 25 0.0 0.0 0.03 0.07 0.03
20191213005733 42 20 0.0 0.0 0.00 0.07 0.00
20191213002736 43 69 0.0 0.0 0.00 0.07 0.00
20191213001737 44 69 0.0 0.0 0.00 0.07 0.00
20191212234741 45 69 0.0 0.0 0.00 0.07 0.00
20191212232745 45 69 0.0 0.0 0.00 0.07 0.00
20191212223753 47 69 0.0 0.0 0.00 0.07 0.00
20191212221757 47 69 0.0 0.0 0.00 0.07 0.00
20191212215802 48 69 0.0 0.0 0.00 0.07 0.00
20191212214804 48 69 0.0 0.0 0.00 0.07 0.00
20191212212808 47 69 0.0 0.0 0.00 0.07 0.00
20191212211811 47 69 0.0 0.0 0.00 0.07 0.00
20191212210813 47 69 0.0 0.0 0.00 0.07 0.00
20191212205814 47 69 0.0 0.0 0.00 0.07 0.00
20191212204815 47 69 0.0 0.0 0.00 0.07 0.00
20191212202819 47 69 0.0 0.0 0.00 0.07 0.00
20191212201822 46 69 0.0 0.0 0.00 0.07 0.00
20191212200824 46 69 0.0 0.0 0.00 0.07 0.00
20191212192829 45 69 0.0 0.0 0.00 0.07 0.00
20191212191831 45 69 0.0 0.0 0.00 0.07 0.00
20191212190833 43 69 0.0 0.0 0.00 0.07 0.00
20191212185835 43 69 0.0 0.0 0.00 0.07 0.00
20191212184837 42 69 0.0 0.0 0.00 0.07 0.00
20191212183840 42 69 0.0 0.0 0.00 0.07 0.00
20191212182843 42 69 0.0 0.0 0.00 0.07 0.00
20191212181845 41 69 0.0 0.0 0.00 0.07 0.00
20191212180848 40 69 0.0 0.0 0.00 0.07 0.00
20191212175850 39 69 0.0 0.0 0.00 0.07 0.00
20191212174853 39 69 0.0 0.0 0.00 0.07 0.00
20191212173855 39 69 0.0 0.0 0.00 0.07 0.00
20191212171900 38 69 0.0 0.0 0.00 0.07 0.00
20191212165905 38 69 0.0 0.0 0.00 0.07 0.00
20191212163910 37 69 0.0 0.0 0.00 0.07 0.00
20191212162912 37 69 0.0 0.0 0.00 0.07 0.00
20191212161915 36 69 0.0 0.0 0.00 0.07 0.00
20191212160915 37 69 0.0 0.0 0.00 0.07 0.00
20191212154920 36 69 0.0 0.0 0.00 0.07 0.00
20191212150927 36 69 0.0 0.0 0.00 0.07 0.00
20191212145927 36 69 0.0 0.0 0.00 0.07 0.00
20191212142929 37 69 0.0 0.0 0.00 0.00 0.07
20191212141930 37 69 0.0 0.0 0.00 0.00 0.07
20191212140930 36 69 0.0 0.0 0.00 0.00 0.07
20191212135932 37 69 0.0 0.0 0.00 0.00 0.07
20191212132938 36 69 0.0 0.0 0.00 0.00 0.07
20191212131940 36 69 0.0 0.0 0.00 0.00 0.07
20191212130942 36 69 0.0 0.0 0.00 0.00 0.07
20191212125930 36 69 0.0 0.0 0.00 0.00 0.07
20191212123934 37 69 0.0 0.0 0.00 0.00 0.07
20191212122933 37 69 0.0 0.0 0.00 0.00 0.07
20191212121935 36 69 0.0 0.0 0.00 0.00 0.07
20191212115938 36 69 0.0 0.0 0.00 0.00 0.07
20191212114941 36 69 0.0 0.0 0.00 0.00 0.07
20191212113943 36 69 0.0 0.0 0.00 0.00 0.07
20191212112945 36 69 0.0 0.0 0.00 0.00 0.07
20191212111948 36 69 0.0 0.0 0.00 0.00 0.07
20191212101959 36 69 0.0 0.0 0.00 0.00 0.07
20191212100003 36 69 0.0 0.0 0.00 0.00 0.07
20191212095005 36 69 0.0 0.0 0.00 0.00 0.07
20191212094008 37 69 0.0 0.0 0.00 0.00 0.07
20191212093010 36 69 0.0 0.0 0.00 0.00 0.07
20191212092013 36 69 0.0 0.0 0.00 0.00 0.07
20191212091015 36 69 0.0 0.0 0.00 0.00 0.07
20191212090017 36 69 0.0 0.0 0.00 0.00 0.07
20191212084022 36 69 0.0 0.0 0.00 0.00 0.07
20191212083024 36 69 0.0 0.0 0.00 0.00 0.07
20191212082026 36 69 0.0 0.0 0.00 0.00 0.07
20191212080030 36 69 0.0 0.0 0.00 0.00 0.07
20191212075033 36 69 0.0 0.0 0.00 0.00 0.07
20191212073036 36 69 0.0 0.0 0.00 0.00 0.07
20191212072038 36 69 0.0 0.0 0.00 0.00 0.07
20191212071039 36 69 0.0 0.0 0.00 0.00 0.07
20191212070042 35 69 0.0 0.0 0.00 0.00 0.07
20191212065044 36 69 0.0 0.0 0.00 0.00 0.07
20191212064046 36 69 0.0 0.0 0.01 0.00 0.07
20191212063049 36 69 0.0 0.0 0.01 0.00 0.07
20191212061053 36 69 0.0 0.0 0.01 0.00 0.07
20191212060056 36 69 0.0 0.0 0.01 0.00 0.07
20191212054100 36 69 0.0 0.0 0.05 0.00 0.07
20191212053102 36 69 0.0 0.0 0.05 0.00 0.07
20191212044113 36 69 0.0 0.0 0.00 0.00 0.05
20191212043115 37 69 0.0 0.0 0.00 0.00 0.04
20191212042117 36 69 0.0 0.0 0.00 0.00 0.03
20191212041116 36 69 0.0 0.0 0.00 0.00 0.02
20191212040118 37 69 0.0 0.0 0.00 0.00 0.02
20191212035120 37 69 0.0 0.0 0.00 0.00 0.01
20191212034123 37 69 0.0 0.0 0.01 0.00 0.01
20191212033125 37 69 0.0 0.0 0.01 0.00 0.01
20191212032126 37 352 2.0 2.0 0.01 0.00 0.01
20191212031128 37 60 0.0 2.0 0.01 0.00 0.01
20191212025131 36 48 0.0 0.0 0.01 0.00 0.01
20191212024133 37 46 2.0 1.0 0.00 0.00 0.01
20191212021139 37 39 0.0 0.0 0.00 0.00 0.00
20191212020141 38 39 0.0 0.0 0.00 0.00 0.00
20191212015143 37 23 1.0 1.0 0.00 0.00 0.00
20191212014146 37 339 1.0 2.0 0.00 0.00 0.00
20191212012150 38 51 3.0 3.0 0.00 0.00 0.00
20191212011151 38 8 0.0 0.0 0.00 0.00 0.00
20191212010153 39 8 0.0 0.0 0.00 0.00 0.00
20191212002201 40 316 0.0 0.0 0.00 0.00 0.00
20191212000205 40 316 0.0 0.0 0.00 0.00 0.00
20191211235207 41 316 0.0 0.0 0.00 0.00 0.00
20191211232214 41 316 0.0 0.0 0.00 0.00 0.00
20191211231216 42 316 0.0 0.0 0.00 0.00 0.00
20191211223225 44 158 0.0 0.0 0.00 0.00 0.00
20191211221229 44 158 0.0 0.0 0.00 0.00 0.00
20191211215234 45 45 0.0 0.0 0.00 0.00 0.00
20191211214236 45 149 0.0 0.0 0.00 0.00 0.00
20191211212240 45 59 0.0 0.0 0.00 0.00 0.00
20191211211243 45 59 0.0 0.0 0.00 0.00 0.00
20191211210245 45 59 0.0 0.0 0.00 0.00 0.00
20191211203250 46 59 0.0 0.0 0.00 0.00 0.00
20191211195256 46 59 0.0 0.0 0.00 0.00 0.00
20191211194258 46 152 0.0 0.0 0.00 0.00 0.00
20191211192302 46 152 0.0 0.0 0.00 0.00 0.00
20191211190305 46 152 0.0 0.0 0.00 0.00 0.00
20191211184310 47 339 0.0 0.0 0.00 0.00 0.00
20191211183312 48 39 0.0 0.0 0.00 0.00 0.00
20191211182314 49 70 0.0 0.0 0.00 0.00 0.00
20191211175321 44 41 0.0 0.0 0.00 0.00 0.00
20191211174323 42 41 0.0 0.0 0.00 0.00 0.00
20191211172328 43 51 0.0 0.0 0.00 0.00 0.00
20191211170332 38 51 0.0 0.0 0.00 0.00 0.00
20191211164336 35 51 0.0 0.0 0.00 0.00 0.00
20191211161342 31 58 0.0 0.0 0.00 0.00 0.00
20191211160344 31 58 0.0 0.0 0.00 0.00 0.00
20191211153351 31 32 0.0 0.0 0.00 0.00 0.00
20191211145359 31 45 0.0 1.0 0.00 0.00 0.00
20191211142402 31 24 0.0 0.0 0.00 0.00 0.00
20191211141404 32 24 0.0 0.0 0.00 0.00 0.00
20191211140404 32 32 0.0 0.0 0.00 0.00 0.00
20191211135406 32 32 0.0 0.0 0.00 0.00 0.00
20191211134408 32 32 0.0 0.0 0.00 0.00 0.00
20191211133411 33 32 0.0 0.0 0.00 0.00 0.00
20191211130417 33 52 0.0 0.0 0.00 0.00 0.00
20191211125419 33 52 0.0 0.0 0.00 0.00 0.00
20191211124421 33 52 0.0 0.0 0.00 0.00 0.00
20191211123424 34 52 0.0 0.0 0.00 0.00 0.00
20191211122426 33 52 0.0 0.0 0.00 0.00 0.00
20191211121428 34 52 0.0 0.0 0.00 0.00 0.00
20191211120431 34 52 0.0 0.0 0.00 0.00 0.00
20191211114435 34 42 2.0 1.0 0.00 0.00 0.00
20191211113437 34 10 0.0 0.0 0.00 0.00 0.00
20191211112439 34 10 0.0 0.0 0.00 0.00 0.00
20191211111442 35 10 0.0 0.0 0.00 0.00 0.00
20191211110444 34 10 0.0 0.0 0.00 0.00 0.00
20191211105446 35 357 0.0 0.0 0.00 0.00 0.00
20191211104448 34 6 0.0 0.0 0.00 0.00 0.00
20191211100457 35 128 0.0 0.0 0.00 0.00 0.00
20191211092505 34 53 0.0 0.0 0.00 0.00 0.00
20191211091506 35 58 3.0 0.0 0.00 0.00 0.00
20191211090509 32 3 1.0 0.0 0.00 0.00 0.00
20191211085509 33 333 0.0 0.0 0.00 0.00 0.00
20191211084512 32 333 0.0 0.0 0.00 0.00 0.00
20191211083513 32 333 0.0 0.0 0.00 0.00 0.00
20191211082526 32 14 0.0 0.0 0.00 0.00 0.00
20191211081517 32 14 0.0 0.0 0.00 0.00 0.00
20191211073526 32 45 0.0 2.0 0.00 0.00 0.00
20191211072529 32 41 0.0 0.0 0.00 0.00 0.00
20191211065533 32 41 0.0 0.0 0.00 0.00 0.00
20191211060540 32 60 0.0 0.0 0.00 0.00 0.00
20191211053543 31 8 0.0 0.0 0.00 0.00 0.00
20191211051547 31 8 0.0 0.0 0.00 0.00 0.00
20191211050550 31 8 0.0 0.0 0.00 0.00 0.00
20191211045552 31 8 0.0 0.0 0.00 0.00 0.00
20191211044554 31 8 0.0 0.0 0.00 0.00 0.00
20191211041554 32 8 0.0 0.0 0.00 0.00 0.00
20191211033602 32 8 0.0 0.0 0.00 0.00 0.00
20191211032602 32 15 0.0 0.0 0.00 0.00 0.00
20191211030607 33 15 0.0 0.0 0.00 0.00 0.00
20191211024612 34 15 0.0 0.0 0.00 0.00 0.00
20191211021611 34 15 0.0 0.0 0.00 0.00 0.00
20191211020614 34 173 0.0 0.0 0.00 0.00 0.00
20191211015616 35 173 0.0 0.0 0.00 0.00 0.00
20191211003630 38 173 0.0 0.0 0.00 0.00 0.00
20191211000637 40 173 0.0 0.0 0.00 0.00 0.00
20191210233638 42 173 0.0 0.0 0.00 0.00 0.00
20191210232640 43 173 0.0 0.0 0.00 0.00 0.00
20191210231643 43 173 0.0 0.0 0.00 0.00 0.00
20191210222651 46 173 0.0 0.0 0.00 0.00 0.00
20191210221653 46 173 0.0 0.0 0.00 0.00 0.00
20191210220656 46 173 0.0 0.0 0.00 0.00 0.00
20191210214700 47 124 0.0 0.0 0.00 0.00 0.00
20191210211707 47 124 0.0 0.0 0.00 0.00 0.00
20191210203714 48 155 0.0 0.0 0.00 0.00 0.00
20191210202718 48 174 0.0 2.0 0.00 0.00 0.00
20191210195721 49 121 0.0 0.0 0.00 0.00 0.00
20191210194724 49 121 0.0 0.0 0.00 0.00 0.00
20191210192723 49 37 0.0 0.0 0.00 0.00 0.00
20191210190727 47 37 0.0 0.0 0.00 0.00 0.00
20191210184728 46 37 0.0 0.0 0.00 0.00 0.00
20191210182733 46 37 0.0 0.0 0.00 0.00 0.00
20191210171743 29 37 0.0 0.0 0.00 0.00 0.00
20191210170744 28 37 0.0 0.0 0.00 0.00 0.00
20191210165746 28 37 0.0 0.0 0.00 0.00 0.00
20191210164748 28 37 0.0 0.0 0.00 0.00 0.00
20191210162752 28 38 0.0 0.0 0.00 0.00 0.00
20191210161754 27 38 0.0 0.0 0.00 0.00 0.00
20191210160756 27 38 0.0 0.0 0.00 0.00 0.00
20191210154801 26 38 0.0 0.0 0.00 0.00 0.00
20191210150808 26 63 0.0 0.0 0.00 0.00 0.00
20191210145811 26 63 0.0 0.0 0.00 0.00 0.00
20191210143816 26 63 0.0 0.0 0.00 0.11 0.00
20191210141820 25 63 0.0 0.0 0.00 0.11 0.00
20191210140823 25 63 0.0 0.0 0.00 0.11 0.00
20191210135824 25 63 0.0 0.0 0.00 0.11 0.00
20191210134826 26 63 0.0 0.0 0.00 0.11 0.00
20191210133829 25 63 0.0 0.0 0.00 0.11 0.00
20191210131832 25 63 0.0 0.0 0.00 0.11 0.00
20191210130916 25 63 0.0 0.0 0.00 0.11 0.00
20191210130835 25 63 0.0 0.0 0.00 0.11 0.00
20191210121847 25 63 0.0 0.0 0.00 0.11 0.00
20191210120850 25 63 0.0 0.0 0.00 0.11 0.00
20191210114855 26 63 0.0 0.0 0.00 0.11 0.00
20191210113857 26 63 0.0 0.0 0.00 0.11 0.00
20191210112859 26 63 0.0 0.0 0.00 0.11 0.00
20191210111901 26 63 0.0 0.0 0.00 0.11 0.00
20191210105903 26 63 0.0 0.0 0.00 0.11 0.00
20191210104905 26 63 0.0 0.0 0.00 0.11 0.00
20191210101908 27 63 0.0 0.0 0.00 0.11 0.00
20191210084923 28 63 0.0 0.0 0.00 0.11 0.00
20191210064945 29 21 0.0 0.0 0.00 0.11 0.00
20191210063947 29 21 0.0 0.0 0.00 0.11 0.00
20191210062950 28 21 0.0 0.0 0.00 0.11 0.00
20191210061946 29 21 0.0 0.0 0.00 0.11 0.00
20191210061030 29 21 0.0 0.0 0.00 0.11 0.00
20191210060949 29 21 0.0 0.0 0.00 0.11 0.00
20191210052958 30 21 0.0 0.0 0.00 0.11 0.00
20191210051002 30 21 0.0 0.0 0.00 0.11 0.00
20191210044009 30 21 0.0 0.0 0.00 0.11 0.00
20191210043012 30 21 0.0 0.0 0.00 0.11 0.00
20191210041017 31 115 0.0 0.0 0.00 0.11 0.00
20191210040019 31 115 0.0 0.0 0.00 0.11 0.00
20191210035022 31 115 0.0 0.0 0.00 0.11 0.00
20191210000059 39 115 0.0 0.0 0.00 0.11 0.00
20191209233106 40 115 0.0 0.0 0.00 0.11 0.00
20191209230113 42 115 0.0 0.0 0.00 0.11 0.00
20191209224117 43 115 0.0 0.0 0.00 0.11 0.00
20191209223120 43 115 0.0 0.0 0.00 0.11 0.00
20191209221124 43 115 0.0 0.0 0.00 0.11 0.00
20191209215129 44 115 0.0 0.0 0.00 0.11 0.00
20191209214132 44 115 0.0 0.0 0.00 0.11 0.00
20191209213134 43 115 0.0 0.0 0.00 0.11 0.00
20191209211138 43 115 0.0 0.0 0.00 0.11 0.00
20191209210139 43 115 0.0 0.0 0.00 0.11 0.00
20191209205142 44 115 0.0 0.0 0.00 0.11 0.00
20191209204144 44 115 0.0 0.0 0.00 0.11 0.00
20191209202148 44 65 0.0 0.0 0.00 0.11 0.00
20191209201150 44 65 0.0 0.0 0.00 0.11 0.00
20191209200152 45 65 0.0 0.0 0.00 0.11 0.00
20191209195155 45 65 0.0 0.0 0.00 0.11 0.00
20191209191202 47 65 0.0 0.0 0.00 0.11 0.00
20191209185206 48 65 0.0 0.0 0.00 0.11 0.00
20191209182213 44 65 0.0 0.0 0.00 0.11 0.00
20191209181215 43 65 0.0 0.0 0.00 0.11 0.00
20191209171227 36 65 0.0 0.0 0.00 0.11 0.00
20191209170230 33 65 0.0 0.0 0.00 0.11 0.00
20191209165232 32 65 0.0 0.0 0.00 0.11 0.00
20191209164234 31 65 0.0 0.0 0.00 0.11 0.00
20191209161242 26 65 0.0 0.0 0.00 0.11 0.00
20191209160244 26 65 0.0 0.0 0.00 0.11 0.00
20191209155246 25 65 0.0 0.0 0.00 0.11 0.00
20191209154248 26 65 0.0 0.0 0.00 0.11 0.00
20191209153251 26 65 0.0 0.0 0.00 0.11 0.00
20191209152253 25 65 0.0 0.0 0.00 0.11 0.00
20191209145300 26 65 0.0 0.0 0.00 0.11 0.00
20191209141309 26 65 0.0 0.0 0.00 0.41 0.11
20191209140311 26 65 0.0 0.0 0.00 0.41 0.11
20191209133319 26 65 0.0 0.0 0.00 0.41 0.11
20191209131323 26 65 0.0 0.0 0.00 0.41 0.11
20191209125328 27 65 0.0 0.0 0.00 0.41 0.11
20191209124331 27 65 0.0 0.0 0.00 0.41 0.11
20191209123334 27 65 0.0 0.0 0.00 0.41 0.11
20191209122336 26 65 0.0 0.0 0.00 0.41 0.11
20191209120340 27 65 0.0 0.0 0.00 0.41 0.11
20191209113347 27 65 0.0 0.0 0.00 0.41 0.11
20191209112350 27 65 0.0 0.0 0.00 0.41 0.11
20191209105350 28 65 0.0 0.0 0.00 0.41 0.11
20191209104353 28 65 0.0 0.0 0.00 0.41 0.11
20191209102357 28 65 0.0 0.0 0.00 0.41 0.11
20191209100402 28 65 0.0 0.0 0.00 0.41 0.11
20191209095404 28 65 0.0 0.0 0.00 0.41 0.11
20191209093406 29 65 0.0 0.0 0.00 0.41 0.11
20191209092408 29 65 0.0 0.0 0.00 0.41 0.11
20191209091411 28 65 0.0 0.0 0.00 0.41 0.11
20191209090413 29 65 0.0 0.0 0.00 0.41 0.11
20191209085416 30 65 0.0 0.0 0.00 0.41 0.11
20191209084418 29 65 0.0 0.0 0.00 0.41 0.11
20191209083418 29 65 0.0 0.0 0.00 0.41 0.11
20191209082419 29 65 0.0 0.0 0.00 0.41 0.11
20191209071427 30 49 0.0 0.0 0.00 0.41 0.11
20191209065431 30 49 0.0 0.0 0.00 0.41 0.11
20191209064433 30 49 0.0 0.0 0.00 0.41 0.11
20191209063435 30 49 0.0 0.0 0.00 0.41 0.11
20191209062438 30 49 0.0 0.0 0.00 0.41 0.11
20191209060443 30 49 0.0 0.0 0.00 0.41 0.11
20191209054447 30 49 0.0 0.0 0.00 0.41 0.11
20191209053450 31 49 0.0 0.0 0.00 0.41 0.11
20191209051447 31 49 0.0 0.0 0.00 0.41 0.11
20191209050449 31 49 0.0 0.0 0.00 0.41 0.11
20191209044453 32 49 0.0 0.0 0.00 0.41 0.11
20191209043456 32 49 0.0 0.0 0.00 0.41 0.11
20191209042458 31 49 0.0 0.0 0.00 0.41 0.11
20191209040503 31 49 0.0 0.0 0.00 0.41 0.11
20191209035505 32 49 0.0 0.0 0.00 0.41 0.11
20191209024521 34 49 0.0 0.0 0.00 0.41 0.11
20191209023524 35 49 0.0 0.0 0.00 0.41 0.11
20191209012539 36 49 0.0 0.0 0.00 0.41 0.11
20191209010543 36 49 0.0 0.0 0.00 0.41 0.11
20191208232605 40 49 0.0 0.0 0.00 0.41 0.11
20191208225606 40 49 0.0 0.0 0.00 0.41 0.11
20191208222613 40 49 0.0 0.0 0.00 0.41 0.11
20191208211621 41 49 0.0 0.0 0.00 0.41 0.11
20191208210623 41 49 0.0 0.0 0.00 0.41 0.11
20191208204627 41 49 0.0 0.0 0.00 0.41 0.11
20191208203628 41 49 0.0 0.0 0.00 0.41 0.11
20191208201631 41 10 0.0 0.0 0.00 0.41 0.11
20191208195635 41 10 0.0 0.0 0.00 0.41 0.11
20191208194638 41 10 0.0 0.0 0.01 0.41 0.11
20191208193640 41 10 0.0 0.0 0.01 0.41 0.11
20191208191645 40 10 0.0 0.0 0.01 0.41 0.11
20191208190647 40 10 0.0 0.0 0.01 0.41 0.11
20191208185650 42 10 0.0 0.0 0.01 0.41 0.11
20191208174705 34 10 0.0 0.0 0.05 0.41 0.10
20191208172710 33 10 0.0 0.0 0.05 0.41 0.09
20191208170714 33 10 0.0 0.0 0.05 0.41 0.09
20191208162722 33 10 0.0 0.0 0.04 0.41 0.09
20191208160725 32 10 0.0 0.0 0.04 0.41 0.05
20191208155727 32 10 0.0 0.0 0.04 0.41 0.05
20191208153732 33 10 0.0 0.0 0.00 0.41 0.04
20191208152734 32 10 0.0 0.0 0.00 0.41 0.03
20191208135751 33 10 0.0 0.0 0.01 0.57 0.41
20191208134753 33 10 0.0 0.0 0.00 0.57 0.41
20191208133755 33 10 0.0 0.0 0.00 0.57 0.41
20191208131758 34 10 0.0 0.0 0.00 0.57 0.40
20191208125802 34 10 0.0 0.0 0.00 0.57 0.40
20191208124803 34 10 0.0 0.0 0.00 0.57 0.40
20191208123806 34 10 0.0 0.0 0.00 0.57 0.40
20191208121810 34 160 0.0 0.0 0.00 0.57 0.40
20191208120813 34 160 0.0 0.0 0.00 0.57 0.40
20191208115815 34 160 0.0 0.0 0.00 0.57 0.40
20191208113820 34 160 0.0 0.0 0.00 0.57 0.40
20191208111825 33 160 0.0 0.0 0.00 0.57 0.40
20191208110827 34 160 0.0 0.0 0.00 0.57 0.40
20191208104832 34 160 0.0 0.0 0.01 0.57 0.40
20191208103834 34 160 0.0 0.0 0.01 0.57 0.40
20191208102837 35 160 0.0 0.0 0.01 0.57 0.40
20191208095844 35 160 0.0 0.0 0.01 0.57 0.40
20191208092851 36 160 0.0 0.0 0.00 0.57 0.40
20191208091853 35 160 0.0 0.0 0.00 0.57 0.40
20191208085856 36 160 0.0 0.0 0.00 0.57 0.40
20191208083901 36 160 0.0 0.0 0.03 0.57 0.39
20191208082903 35 160 0.0 0.0 0.03 0.57 0.39
20191208075910 36 42 0.0 0.0 0.03 0.57 0.39
20191208074913 37 152 0.0 0.0 0.03 0.57 0.39
20191208073915 36 188 0.0 4.0 0.03 0.57 0.38
20191208072918 36 167 1.0 0.0 0.03 0.57 0.38
20191208071921 36 193 0.0 0.0 0.03 0.57 0.37
20191208064928 35 193 0.0 0.0 0.05 0.57 0.36
20191208063931 37 193 0.0 0.0 0.05 0.57 0.35
20191208062931 36 193 1.0 0.0 0.05 0.57 0.35
20191208061932 36 165 0.0 0.0 0.05 0.57 0.35
20191208060934 36 165 0.0 0.0 0.05 0.57 0.34
20191208055937 36 165 0.0 0.0 0.05 0.57 0.33
20191208053941 37 222 0.0 0.0 0.06 0.57 0.32
20191208050947 37 153 0.0 0.0 0.06 0.57 0.29
20191208043954 37 34 0.0 0.0 0.02 0.57 0.27
20191208042957 38 34 0.0 0.0 0.02 0.57 0.25
20191208041957 37 34 0.0 0.0 0.02 0.57 0.24
20191208041000 37 239 0.0 0.0 0.02 0.57 0.23
20191208033009 39 176 0.0 0.0 0.00 0.57 0.21
20191208032011 38 274 0.0 0.0 0.00 0.57 0.21
20191208031014 39 221 0.0 0.0 0.00 0.57 0.20
20191208021026 38 174 0.0 0.0 0.00 0.57 0.20
20191208020027 39 174 0.0 0.0 0.00 0.57 0.20
20191208005038 39 179 3.0 3.0 0.07 0.57 0.20
20191208002044 39 98 0.0 0.0 0.07 0.57 0.20
20191208000036 40 138 0.0 0.0 0.07 0.57 0.20
20191207235037 39 141 0.0 0.0 0.02 0.57 0.20
20191207234040 40 177 3.0 0.0 0.02 0.57 0.19
20191207233042 39 127 0.0 0.0 0.02 0.57 0.17
20191207230046 40 145 0.0 0.0 0.02 0.57 0.13
20191207225048 40 145 0.0 0.0 0.02 0.57 0.13
20191207223052 41 53 0.0 0.0 0.02 0.57 0.12
20191207222054 41 187 0.0 0.0 0.02 0.57 0.12
20191207220054 42 197 0.0 0.0 0.02 0.57 0.12
20191207210106 42 135 0.0 0.0 0.01 0.57 0.09
20191207203111 40 188 0.0 2.0 0.00 0.57 0.08
20191207202113 43 190 6.0 5.0 0.00 0.57 0.08
20191207200118 42 300 0.0 0.0 0.00 0.57 0.08
20191207195120 43 198 6.0 4.0 0.00 0.57 0.08
20191207194122 42 197 3.0 2.0 0.01 0.57 0.08
20191207185134 41 214 0.0 0.0 0.01 0.57 0.08
20191207184136 41 186 0.0 0.0 0.01 0.57 0.08
20191207183138 41 212 1.0 3.0 0.01 0.57 0.08
20191207182140 40 193 0.0 0.0 0.01 0.57 0.08
20191207181142 41 166 0.0 8.0 0.01 0.57 0.08
20191207180144 41 177 1.0 0.0 0.01 0.57 0.07
20191207174149 39 284 1.0 0.0 0.03 0.57 0.07
20191207173151 40 128 0.0 0.0 0.03 0.57 0.07
20191207172153 39 167 4.0 6.0 0.03 0.57 0.07
20191207163206 39 153 0.0 0.0 0.03 0.57 0.06
20191207160213 40 11 0.0 0.0 0.03 0.57 0.04
20191207154217 40 174 2.0 6.0 0.08 0.57 0.03
20191207153220 40 207 1.0 0.0 0.08 0.57 0.02
20191207152222 40 233 0.0 0.0 0.08 0.57 0.02
20191207150227 40 238 0.0 0.0 0.08 0.57 0.00
20191207145229 38 170 0.0 21.0 0.08 0.57 0.00
20191207143234 39 173 0.0 0.0 0.00 0.00 0.54
20191207141239 39 173 0.0 0.0 0.00 0.00 0.50
20191207140242 39 173 0.0 0.0 0.00 0.00 0.50
20191207135244 39 173 0.0 0.0 0.00 0.00 0.49
20191207133249 40 201 4.0 3.0 0.02 0.00 0.49
20191207132252 41 153 6.0 4.0 0.02 0.00 0.49
20191207131254 40 243 3.0 8.0 0.02 0.00 0.49
20191207130257 39 150 2.0 1.0 0.02 0.00 0.49
20191207124302 39 201 0.0 0.0 0.10 0.00 0.49
20191207115314 39 221 1.0 5.0 0.10 0.00 0.47
20191207113319 37 174 0.0 3.0 0.13 0.00 0.45
20191207112322 36 222 0.0 0.0 0.13 0.00 0.44
20191207111325 37 222 0.0 0.0 0.13 0.00 0.43
20191207110327 36 222 0.0 0.0 0.13 0.00 0.42
20191207105330 37 222 0.0 0.0 0.13 0.00 0.38
20191207103334 36 222 0.0 0.0 0.20 0.00 0.31
20191207102336 38 222 1.0 0.0 0.20 0.00 0.31
20191207094344 38 249 4.0 0.0 0.04 0.00 0.23
20191207093346 38 212 3.0 2.0 0.04 0.00 0.21
20191207092349 38 149 4.0 4.0 0.04 0.00 0.16
20191207091351 37 259 0.0 0.0 0.04 0.00 0.11
20191207090354 37 257 0.0 0.0 0.04 0.00 0.09
20191207085356 38 257 0.0 0.0 0.04 0.00 0.05
20191207084359 38 257 0.0 0.0 0.00 0.00 0.03
20191207083401 39 110 5.0 3.0 0.00 0.00 0.01
20191207082402 39 153 0.0 0.0 0.00 0.00 0.00
20191207081404 40 200 2.0 8.0 0.00 0.00 0.00
20191207080407 42 233 1.0 0.0 0.00 0.00 0.00
20191207075409 41 219 4.0 4.0 0.00 0.00 0.00
20191207072417 42 212 5.0 5.0 0.00 0.00 0.00
20191207070422 42 198 0.0 1.0 0.00 0.00 0.00
20191207065425 42 267 2.0 0.0 0.00 0.00 0.00
20191207063430 41 273 2.0 2.0 0.00 0.00 0.00
20191207061434 42 250 2.0 1.0 0.00 0.00 0.00
20191207060434 42 42 4.0 4.0 0.00 0.00 0.00
20191207055437 42 194 1.0 3.0 0.00 0.00 0.00
20191207053442 41 89 1.0 2.0 0.00 0.00 0.00
20191207052444 39 352 2.0 0.0 0.00 0.00 0.00
20191207051447 41 10 3.0 4.0 0.00 0.00 0.00
20191207040504 38 245 3.0 3.0 0.00 0.00 0.00
20191207035506 34 312 1.0 0.0 0.00 0.00 0.00
20191207034509 34 0 0.0 1.0 0.00 0.00 0.00
20191207031516 34 63 2.0 0.0 0.00 0.00 0.00
20191207024523 34 118 1.0 0.0 0.00 0.00 0.00
20191207013538 37 345 2.0 0.0 0.00 0.00 0.00
20191207012541 37 332 2.0 0.0 0.00 0.00 0.00
20191207011542 37 128 0.0 0.0 0.00 0.00 0.00
20191207010545 37 128 0.0 0.0 0.00 0.00 0.00
20191207004548 39 128 0.0 0.0 0.00 0.00 0.00
20191207003551 39 197 0.0 0.0 0.00 0.00 0.00
20191207002553 40 4 0.0 0.0 0.00 0.00 0.00
20191207001556 41 4 0.0 0.0 0.00 0.00 0.00
20191206234603 42 197 0.0 0.0 0.00 0.00 0.00
20191206233605 42 150 0.0 0.0 0.00 0.00 0.00
20191206224618 47 188 6.0 6.0 0.00 0.00 0.00
20191206221624 46 13 4.0 2.0 0.00 0.00 0.00
20191206220625 45 170 0.0 0.0 0.00 0.00 0.00
20191206211633 47 143 1.0 2.0 0.00 0.00 0.00
20191206203641 47 259 0.0 0.0 0.00 0.00 0.00
20191206202643 49 236 0.0 0.0 0.00 0.00 0.00
20191206200647 49 104 0.0 0.0 0.00 0.00 0.00
20191206195649 48 101 3.0 0.0 0.00 0.00 0.00
20191206190701 49 39 0.0 0.0 0.00 0.00 0.00
20191206184705 50 39 0.0 0.0 0.00 0.00 0.00
20191206181711 49 39 0.0 0.0 0.00 0.00 0.00
20191206175715 46 39 0.0 0.0 0.00 0.00 0.00
20191206155743 27 11 0.0 0.0 0.00 0.00 0.00
20191206141802 28 11 0.0 0.0 0.00 0.27 0.00
20191206140804 28 11 0.0 0.0 0.00 0.27 0.00
20191206134808 28 11 0.0 0.0 0.00 0.27 0.00
20191206133809 29 11 0.0 0.0 0.00 0.27 0.00
20191206131814 28 11 0.0 0.0 0.00 0.27 0.00
20191206121826 29 11 0.0 0.0 0.00 0.27 0.00
20191206120827 29 11 0.0 0.0 0.00 0.27 0.00
20191206113831 29 11 0.0 0.0 0.00 0.27 0.00
20191206112833 29 11 0.0 0.0 0.00 0.27 0.00
20191206111835 29 11 0.0 0.0 0.00 0.27 0.00
20191206104842 30 11 0.0 0.0 0.00 0.27 0.00
20191206101846 30 11 0.0 0.0 0.00 0.27 0.00
20191206100848 30 11 0.0 0.0 0.00 0.27 0.00
20191206095850 30 11 0.0 0.0 0.00 0.27 0.00
20191206094853 30 11 0.0 0.0 0.00 0.27 0.00
20191206093855 30 11 0.0 0.0 0.00 0.27 0.00
20191206092858 30 11 0.0 0.0 0.00 0.27 0.00
20191206091900 30 11 0.0 0.0 0.00 0.27 0.00
20191206090902 30 11 0.0 0.0 0.00 0.27 0.00
20191206085904 30 11 0.0 0.0 0.00 0.27 0.00
20191206084907 30 11 0.0 0.0 0.00 0.27 0.00
20191206082911 30 11 0.0 0.0 0.00 0.27 0.00
20191206081914 30 11 0.0 0.0 0.00 0.27 0.00
20191206080916 30 11 0.0 0.0 0.00 0.27 0.00
20191206075918 31 11 0.0 0.0 0.00 0.27 0.00
20191206065928 31 11 0.0 0.0 0.00 0.27 0.00
20191206063930 31 11 0.0 0.0 0.00 0.27 0.00
20191206062932 31 11 0.0 0.0 0.00 0.27 0.00
20191206061934 31 11 0.0 0.0 0.00 0.27 0.00
20191206055939 31 11 0.0 0.0 0.00 0.27 0.00
20191206054940 31 11 0.0 0.0 0.00 0.27 0.00
20191206053942 31 11 0.0 0.0 0.00 0.27 0.00
20191206052945 31 11 0.0 0.0 0.00 0.27 0.00
20191206051947 31 11 0.0 0.0 0.00 0.27 0.00
20191206045952 31 11 0.0 0.0 0.00 0.27 0.00
20191206043956 31 11 0.0 0.0 0.00 0.27 0.00
20191206042959 32 11 0.0 0.0 0.00 0.27 0.00
20191206031016 33 11 0.0 0.0 0.00 0.27 0.00